Regional Weather Roundup
Issued by NWS

Home | Current Version | Previous Version | Graphics & Text | Print | Product List | Glossary On
Versions: 1 2 3 4 5 6 7 8 9 10 11 12 13 14 15 16 17 18 19 20 21 22 23 24 25 26 27 28 29 30 31 32 33 34 35 36 37 38 39 40 41 42 43 44 45 46 47 48 49 50
000
ASUS43 KBIS 011610
RWRND

NORTH DAKOTA REGIONAL WEATHER ROUNDUP
NATIONAL WEATHER SERVICE BISMARCK ND
1100 AM CDT SAT OCT 01 2016

NOTE: "FAIR" INDICATES FEW OR NO CLOUDS BELOW 12,000 FEET WITH NO
SIGNIFICANT WEATHER AND/OR OBSTRUCTIONS TO VISIBILITY.


NDZ001>003-009>011-017-011700-
NORTHWEST NORTH DAKOTA

CITY           SKY/WX    TMP DP  RH WIND       PRES   REMARKS
WILLISTON      SUNNY     60  49  66 CALM      29.98S
MINOT          SUNNY     61  49  64 SE9       30.00F
MINOT AFB      SUNNY     61  49  65 SE10      30.00S
$$

NDZ018>021-031>035-040>046-011700-
SOUTHWEST NORTH DAKOTA

CITY           SKY/WX    TMP DP  RH WIND       PRES   REMARKS
BISMARCK       SUNNY     63  48  58 SE12      30.03S
DICKINSON      SUNNY     61  49  64 VRB3      29.97S
GARRISON         N/A     63  48  58 SE7       30.00F
HETTINGER ARPT SUNNY     63  49  60 SE5       30.00S
$$

NDZ004>008-012>016-024-026-027-054-011700-
NORTHEAST NORTH DAKOTA

CITY           SKY/WX    TMP DP  RH WIND       PRES   REMARKS
GRAND FORKS    CLOUDY    58  50  75 S7        30.14F
GRND FRKS AFB  MOSUNNY   59  52  75 SE8       30.14S
DEVILS LAKE    MOSUNNY   61  51  70 SE13      30.10S
$$

NDZ022-023-025-028>030-036>039-047>053-011700-
SOUTHEAST NORTH DAKOTA

CITY           SKY/WX    TMP DP  RH WIND       PRES   REMARKS
FARGO          CLOUDY    61  52  72 SE8       30.14F
JAMESTOWN      MOSUNNY   62  52  69 S12       30.10S
$$





USA.gov is the U.S. government's official web portal to all federal, state and local government web resources and services.